Timeline UpdatesTrip UpdatesNews PostsPvt PostsTravel TipsAdmin PostsConv PostsFollowed PostsChat RequestsBlog PostsPNR Posts

Disclaimer
Search
 
 
Thu Oct 2, 2014 09:58:27 ISTHomeTrainsΣChainsAtlasPNRForumGalleryNewsFAQTripsMembersLoginFeedback
No Recent News for this Train
Other Trains in the News **new
Latest...
Temporary Stop at Vindhyachal (BDL) for 2 minutes from 25/9/14-6/10/14 #1223333.
Wed Sep 24, 2014 (11:32PM)
⇐ Return Journey: Train# 14055

14056/Brahmaputra Mail

Time-Table HAS CHANGED.
Sep 24 (11:32PM)
Change Departure Station:
Change Arrival Station:
Post a Train Travel TipPost a Train Travel Tip **new
Post a Comment/Question/Picture/VideoPost a Comment/Question/Picture/Video
Inaugural Run
Tue Oct 01, 1974
Pantry/Catering
✓ Pantry Car Avbl
✓ Catering Avbl
RSA - Rake Sharing
NO RSA
Rake/Coach Composition
LOCO-SLR-GS-GS-GS-S1-S2-S3-S4-S5-S6-S7-S8-S9-S10-S11-PC-A1-B1-B2-B3-GS-GS-GS-SLR
Loco
GZB WAP-4 (DLI-KIUL); SGUJ WDP-4/4B/4D (KIUL-DBRG)
News    PNR    Forum    Time-Table    Availability    Fare Chart    Map    Arr/Dep History    Trips    Gallery    ΣChains    X/O    Timeline    
Travel Time: 52h 20m    59 halts    Distance: 2598 km    Avg Speed: 49 km/hr
Type: Mail/Express
Zone: NR/Northern
Departs @ 23:40 (Avg 13m late)
Platform# 16
SMTWTFS
Old Delhi Junction/DLI 
Arrives @ 04:00 +3 nights (Avg 2h 58m late)
Platform# 1
SMTWTFS
Dibrugarh/DBRG 

59 halts. 438 intermediate Stations between Old Delhi Junction and Dibrugarh

Show ALL intermediate Stations  Show Old Time-Table

#CodeStation NameX/OArrivesAvgDepartsAvgHaltPFDay#KmSpeedElevZoneAddress
1DLIOld Delhi Junction (16)»  -23:40+131610.059219mNRNear Chandni Chowk Metro Station, Delhi NCT
2KRJKhurja Junction (4)  01:04+2801:06+282m3282.782199mNCRBulandshahr, Uttar Pradesh
3ALJNAligarh Junction (4)XO  01:38+2801:43+285m22126.273192mNCRAligarh, Uttar Pradesh
4TDLTundla Junction (5)XO  02:47+3202:52+325m--2204.487167mNCRDistt.Firozabad, Uttar Pradesh
5SKBShikohabad Junction (4)X  03:19 03:17+4503:21 03:19+452m22240.875166mNCRDistrict Firozabad, Uttar Pradesh
6CNBKanpur Central (10)  05:45 05:55+5305:55 06:00+5710 5m--2435.578128mNCRKANPUR-208 001, Uttar Pradesh
7ALDAllahabad Junction (10)X  08:25 08:30+1:2108:35 08:40+1:2910m42629.974100mNCRAllahabad 211003, Uttar Pradesh
8MZPMirzapur (3)X  09:48 09:53+1:5309:50 09:55+1:542m--2719.44088mNCRMirzapur, Uttar Pradesh
9MGSMughal Sarai Junction (8)O  11:20 11:30+1:5211:30 11:45+1:5210 15m12782.67583mECRMughalsarai 232101, Uttar Pradesh
10DLNDildarnagar Junction (2)X  12:16 12:31+2:0212:18 12:33+2:032m--2840.39172mECRDildarnagar, Uttar Pradesh
11BXRBuxar (3)X  12:47 12:57+2:0812:49 12:59+2:102m--2876.59667mECRBuxar, Bihar
12ARAAra Junction (3)X  13:38 13:42+2:2013:40 13:44+2:212m--2945.04863mECRarrah( 06182-233411), Bihar
13PNBEPatna Junction (10)  14:45+2:2914:55+2:3010m12993.94257mECRPatna 800001, Bihar
14PNCPatna Saheb (3)  15:09+2:3815:11+2:392m221003.87859mECRPatna 800008, Bihar
15MKAMokama Junction (4)  16:12+3:0816:14+3:082m--21083.23748mECRPatna, Bihar
16KIULKiul Junction (5)17:10+3:0617:30+3:2320m421117.46653mECRDist. Lakhisarai, Bihar
17AHAAbhaipur (3)  17:51+3:3317:53+3:332m--21140.46052mERAbhaipur, Bihar
18JMPJamalpur Junction (4)X  18:15+3:3518:30+3:3215m--21162.26559mERJamalpur 06344-243101, Bihar
19SGGSultanGanj (3)  18:57+3:4018:59+3:402m--21191.33342mERSultanganj, Bihar
20BGPBhagalpur Junction (6)  19:45+3:2019:57+3:1712m121216.26949mERBhagalpur, Bihar
21CLGKahalgaon (2)  20:23+3:3520:25+3:372m121246.33744mERBhagalpur, Bihar
22SBGSahibganj Junction (3)X  21:37+3:1421:45+3:178m121290.23738mERSahibganj, Jharkhand
23BHWBarharwa Junction (3)  22:53 23:13+3:1422:55 23:15+3:152m221344.64036mERBarharwa, Jharkhand
24NFKNew Farakka Junction (3)  23:22 23:42+3:1923:24 23:44+3:212m221362.63532mERDist - Murshidabad, West Bengal
25MLDTMalda Town (5)X  00:20 00:45+3:0700:40 01:00+3:0720 15m--31397.78030mERDist - Malda, West Bengal
26BOEBarsoi Junction (3)  01:50 02:08+3:3801:52 02:10+3:382m--31488.36937mNFRdist- katihar, Bihar
27KNEKishanGanj (3)  02:36 03:00+3:4402:41 03:05+3:435m--31545.94852mNFRKishanganj, Bihar
28NJPNew Jalpaiguri Junction (8)  04:25 04:55+3:2304:45 05:15+3:1920m131633.247114mNFRCity-Siliguri . Dist-Jalpaiguri, West Bengal
29JPEJalpaiguri Road (2)  05:24 05:58+3:3405:26 06:00+3:352m131666.75689mNFRdist - Jalpaiguri 735102, West Bengal
30DQGDhupguri (2)X  05:53 06:34+3:4105:58 06:39+3:415m--31698.57175mNFRDist - Jalpaiguri, West Bengal
31FLKFalakata (3)X  06:18 06:58+3:4006:20 07:00+3:432m--31720.93867mNFRDist - Alipurduar, West Bengal
32NCBNew Cooch Behar Junction (5)  07:10 08:00+3:3707:15 08:05+3:415m--31758.75647mNFRDist : Cooch Behar-736101, West Bengal
33NOQNew Alipurduar (2)  07:35 08:25+3:4707:40 08:30+3:505m--31777.48148mNFRDist - Alipurduar - 736121, West Bengal
34GOGHGossaigaon Hat (3)X  08:15 09:04+3:5508:17 09:06+3:552m--31823.078 NFRKokrajhar, Assam
35FKMFakiragram Junction (4)X  08:36 09:24+3:5608:38 09:26+3:552m331846.35944mNFR03661-283454, Assam
36KOJKokrajhar (3)X  08:48 09:36+3:5608:50 09:38+3:562m--31856.23246mNFR03661-270618, Assam
37NBQNew Bongaigaon Junction (4)  10:05 10:30+3:2410:15 10:40+3:2910m--31884.12458mNFR783381., Assam
38BNGNBongaigaon (3)  10:21 10:46+3:2410:23 10:48+3:252m--31886.56360mNFRBongaigaon, Assam
39BJFBijni  10:37 11:02+3:2810:39 11:04+3:302m--31901.27754mNFRDist: Chirang, Assam
40BPRDBarpeta Road  11:07 11:25+3:2711:12 11:30+3:345m--31928.15849mNFRHowli, Assam
41NLVNalbari  12:02 12:20+3:3112:04 12:22+3:342m--31976.56254mNFRNalbari, Assam
42RNYRangiya Junction (5)X  12:25 12:38+3:3312:35 12:48+3:3310m--31993.02558mNFRRangia, Assam
43KYQKamakhya Junction (4)  13:57 14:25+3:2214:02 14:30+3:245m--32033.72855mNFRDist - KAMRUP, Assam
44GHYGuwahati (7)X  14:25 14:45+3:2314:40 15:00+3:3015m--32040.65660mNFRGuwahati, Assam
45DGUDigaru  15:20 15:36+3:3815:22 15:38+3:402m--32074.26158mNFRDigaru, Assam
46JIDJagi Road (2)X  15:47 16:01+3:4915:49 16:03+3:512m--32097.76862mNFRJagiroad, Assam
47CPKChaparmukh Junction (3)X  16:20 16:33+4:0216:25 16:38+4:045m--32131.76165mNFRChaparmukh. Dist. Nagaon. Changing point for HBN/SHTT, Assam
48KWMKampur  16:45 16:55+4:0016:47 16:57+4:032m--32148.94768mNFRKampur, Assam
49JMKJamunamukhX  16:58 17:11+4:0317:00 17:13+4:042m--32159.75870mNFRNational Highway 36, Assam
50HJIHojai (2)  17:28 17:30+4:0017:30 17:32+4:022m--32176.24778mNFRHojai Rd. Ph:- 03674-252136., Assam
51LKALanka (2)X  17:44 17:50+4:0217:46 17:52+4:032m--32190.22689mNFRLanka, Assam
52LMGLumding Junction (5)  18:55 19:05+3:4019:10 19:15+3:3715 10m332221.462142mNFRLumding, Assam
53DPUDiphu (2)  20:06 19:46+3:2620:08 19:48+3:272m--32253.560180mNFRDiphu, Assam
54DMVDimapur (3)  20:45 20:25+3:3420:55 20:35+3:3510m--32290.850153mNFRDimapur, Nagaland
55BXJBokajan (2)  21:11 20:52+3:3721:13 20:57+3:362 5m--32305.036138mNFRBokajan, Assam
56FKGFurkating Junction (2)  22:30+3:2622:32+3:342m--32361.053 NFRK B Rd, Assam
57MXNMariani Junction (4)X  23:15+3:4423:25+3:4710m132399.065117mNFRDist. Jorhat Pin-785634, Assam
58SLGRSimaluguri Junction (3)  00:10 00:15+4:0400:15 00:20+4:045m142453.26899mNFRSimaluguri, Assam
59BOJBhojo  00:45 00:50+4:0600:50 00:55+4:065m--42487.141107mNFRBhojo Railway Station, Assam
60NTSKNew Tinsukia Junction (3)  02:35+3:3902:45+3:5010m--42555.734124mNFRDist: Tinsukia, Assam
61DBRGDibrugarh (4)•  04:00+2:58-142597.7-108mNFRDibrugarh 786003, Assam
Scroll to Top
Scroll to Bottom